Weather History for KUXL - March, 2013

Change the Weather History Date:

Sunday, March 31, 2013

  Actual Average (KLCH) Record (KLCH)
Temperature  
Mean Temperature 68 °F 64 °F  
Max Temperature 78 °F 75 °F 88 °F (1946)
Min Temperature 59 °F 54 °F 31 °F (1987)
Degree Days  
Heating Degree Days 0 3  
Month to date heating degree days 162  
Since 1 July heating degree days 1444  
Cooling Degree Days 4 3  
Month to date cooling degree days 49  
Year to date cooling degree days 72  
Growing Degree Days 18 (Base 50)    
Moisture  
Dew Point 63 °F    
Average Humidity 93    
Maximum Humidity 100    
Minimum Humidity 65    
Precipitation  
Precipitation 0.52 in 0.11 in 2.33 in (1921)
Month to date precipitation 3.66  
Year to date precipitation 12.35  
Snow  
Snow 0.00 in 0.00 in 0.00 in ()
Month to date snowfall 0.0  
Since 1 July snowfall 0.1  
Snow Depth -    
Sea Level Pressure  
Sea Level Pressure 29.97 in    
Wind  
Wind Speed 7 mph (South)    
Max Wind Speed 22 mph    
Max Gust Speed 38 mph    
Visibility 6 miles    
Events Fog , Rain , Thunderstorm    
T = Trace of Precipitation, MM = Missing Value Source: NWS Daily Summary

Daily Weather History Graph

Daily Weather History Graph

Search for Another Location

Airport or City:

Trip Planner

Search our weather history database for the weather conditions in past years. The results will help you decide how hot, cold, wet, or windy it might be!

Date:

Astronomy

Mar. 31, 2013 Rise Set
Actual Time 7:03 AM CDT 7:31 PM CDT
Civil Twilight 6:39 AM CDT 7:55 PM CDT
Nautical Twilight 6:11 AM CDT 8:24 PM CDT
Astronomical Twilight 5:42 AM CDT 8:52 PM CDT
Moon No Moon Rise 10:10 AM CDT (3/31)
Length of Visible Light 13h 16m
Length of Day
12h 28m
Waning Gibbous, 77% of the Moon is Illuminated
Mar 31
Waning Gibbous
Apr 2
Last Quarter
Apr 10
New
Apr 18
First Quarter
Apr 25
Full

Hourly Weather History & Observations

Time (CDT) Temp. Dew Point Humidity Pressure Visibility Wind Dir Wind Speed Gust Speed Precip Events Conditions
12:15 AM 64.4 °F 62.6 °F 94% 30.02 in 7.0 mi South 4.6 mph - N/A   Scattered Clouds
12:35 AM 64.4 °F 62.6 °F 94% 30.01 in 7.0 mi SSE 5.8 mph - N/A   Clear
12:55 AM 62.6 °F 62.6 °F 100% 30.02 in 7.0 mi South 4.6 mph - N/A   Clear
1:15 AM 62.6 °F 62.6 °F 100% 30.02 in 7.0 mi South 3.5 mph - N/A   Clear
1:35 AM 62.6 °F 62.6 °F 100% 30.02 in 5.0 mi South 3.5 mph - N/A   Scattered Clouds
1:55 AM 62.6 °F 62.6 °F 100% 30.01 in 4.0 mi South 3.5 mph - N/A   Clear
2:15 AM 62.6 °F 62.6 °F 100% 30.01 in 4.0 mi Calm Calm - N/A   Clear
2:35 AM 62.6 °F 62.6 °F 100% 30.01 in 3.0 mi South 3.5 mph - N/A   Mist
2:55 AM 62.6 °F 62.6 °F 100% 30.00 in 2.5 mi Calm Calm - N/A   Mist
3:15 AM 62.6 °F 62.6 °F 100% 30.00 in 1.8 mi South 3.5 mph - N/A   Scattered Clouds
3:35 AM 62.6 °F 62.6 °F 100% 29.99 in 5.0 mi South 4.6 mph - N/A   Scattered Clouds
3:55 AM 62.6 °F 62.6 °F 100% 29.98 in 5.0 mi South 5.8 mph - N/A   Clear
4:15 AM 62.6 °F 62.6 °F 100% 29.98 in 5.0 mi SSW 4.6 mph - N/A   Clear
4:35 AM 62.6 °F 62.6 °F 100% 29.98 in 4.0 mi South 4.6 mph - N/A   Clear
4:55 AM 64.4 °F 64.4 °F 100% 29.97 in 4.0 mi South 4.6 mph - N/A   Mostly Cloudy
5:15 AM 62.6 °F 62.6 °F 100% 29.98 in 2.0 mi Calm Calm - N/A   Overcast
5:35 AM 62.6 °F 62.6 °F 100% 29.97 in 2.5 mi Calm Calm - N/A   Overcast
5:55 AM 62.6 °F 62.6 °F 100% 29.98 in 2.0 mi Calm Calm - N/A   Overcast
6:15 AM 62.6 °F 62.6 °F 100% 29.98 in 3.0 mi Calm Calm - N/A   Overcast
6:35 AM 64.4 °F 64.4 °F 100% 29.98 in 3.0 mi SSE 3.5 mph - N/A   Overcast
6:55 AM 64.4 °F 64.4 °F 100% 29.98 in 1.5 mi SSE 3.5 mph - N/A   Overcast
7:15 AM 64.4 °F 64.4 °F 100% 29.98 in 0.5 mi South 5.8 mph - N/A Fog Fog
7:35 AM 64.4 °F 64.4 °F 100% 29.99 in 0.2 mi South 6.9 mph - N/A Fog Fog
7:55 AM 66.2 °F 66.2 °F 100% 29.99 in 0.2 mi South 8.1 mph - N/A Fog Fog
8:15 AM 66.2 °F 66.2 °F 100% 30.00 in 1.2 mi South 6.9 mph - N/A   Overcast
8:35 AM 66.2 °F 66.2 °F 100% 29.99 in 2.5 mi South 9.2 mph - N/A   Overcast
8:55 AM 68.0 °F 68.0 °F 100% 29.99 in 2.5 mi South 8.1 mph - N/A   Overcast
9:15 AM 68.0 °F 68.0 °F 100% 29.99 in 5.0 mi South 9.2 mph - N/A   Overcast
9:55 AM 69.8 °F 68.0 °F 94% 29.97 in 10.0 mi South 13.8 mph 18.4 mph N/A   Overcast
10:15 AM 69.8 °F 68.0 °F 94% 29.97 in 10.0 mi South 9.2 mph - N/A   Overcast
10:35 AM 71.6 °F 68.0 °F 88% 29.98 in 10.0 mi South 12.7 mph - N/A   Overcast
10:55 AM 71.6 °F 68.0 °F 88% 29.98 in 10.0 mi South 10.4 mph - N/A   Overcast
11:15 AM 73.4 °F 68.0 °F 83% 29.98 in 10.0 mi SSE 12.7 mph 16.1 mph N/A   Overcast
11:35 AM 73.4 °F 68.0 °F 83% 29.98 in 10.0 mi South 16.1 mph 19.6 mph N/A   Overcast
11:55 AM 73.4 °F 68.0 °F 83% 29.98 in 10.0 mi South 10.4 mph - N/A   Mostly Cloudy
12:15 PM 73.4 °F 68.0 °F 83% 29.98 in 10.0 mi South 17.3 mph - N/A   Overcast
12:35 PM 75.2 °F 68.0 °F 78% 29.99 in 10.0 mi South 16.1 mph 19.6 mph N/A   Overcast
12:55 PM 77.0 °F 68.0 °F 74% 29.98 in 10.0 mi SSW 16.1 mph - N/A   Mostly Cloudy
1:15 PM 75.2 °F 68.0 °F 78% 29.98 in 10.0 mi SSW 16.1 mph 19.6 mph N/A   Mostly Cloudy
1:35 PM 77.0 °F 68.0 °F 74% 29.97 in 10.0 mi SW 13.8 mph 21.9 mph N/A   Mostly Cloudy
1:55 PM 77.0 °F 66.2 °F 69% 29.97 in 10.0 mi SSW 15.0 mph 20.7 mph N/A   Overcast
2:15 PM 78.8 °F 68.0 °F 69% 29.96 in 10.0 mi SSW 16.1 mph 23.0 mph N/A   Mostly Cloudy
2:35 PM 77.0 °F 68.0 °F 74% 29.95 in 10.0 mi South 16.1 mph 20.7 mph N/A   Scattered Clouds
2:55 PM 75.2 °F 62.6 °F 65% 30.01 in 10.0 mi NW 21.9 mph 38.0 mph N/A   Mostly Cloudy
3:15 PM 60.8 °F 59.0 °F 94% 30.01 in 7.0 mi North 13.8 mph 28.8 mph 0.01 in Rain Rain
3:35 PM 60.8 °F 59.0 °F 94% 30.00 in 7.0 mi NNE 10.4 mph 25.3 mph 0.06 in Rain Rain
3:55 PM 60.8 °F 59.0 °F 94% 29.99 in 10.0 mi NE 13.8 mph 21.9 mph 0.08 in Rain Light Rain
4:15 PM 60.8 °F 59.0 °F 94% 29.98 in 10.0 mi NE 10.4 mph - 0.01 in Rain , Thunderstorm Light Thunderstorms and Rain
4:35 PM 60.8 °F 59.0 °F 94% 29.99 in 5.0 mi NE 10.4 mph 17.3 mph 0.06 in Rain Rain
4:55 PM 60.8 °F 59.0 °F 94% 29.99 in 5.0 mi NE 10.4 mph - 0.13 in Rain , Thunderstorm Thunderstorms and Rain
5:15 PM 60.8 °F 59.0 °F 94% 29.98 in 5.0 mi East 9.2 mph - 0.08 in Rain , Thunderstorm Thunderstorms and Rain
5:35 PM 60.8 °F 59.0 °F 94% 29.96 in 4.0 mi SE 11.5 mph 18.4 mph 0.15 in Rain , Thunderstorm Thunderstorms and Rain
5:55 PM 60.8 °F 59.0 °F 94% 29.94 in 5.0 mi East 9.2 mph - 0.23 in Rain , Thunderstorm Rain
6:15 PM 60.8 °F 60.8 °F 100% 29.93 in 10.0 mi ESE 3.5 mph - 0.02 in Rain , Thunderstorm Light Thunderstorms and Rain
6:35 PM 62.6 °F 60.8 °F 94% 29.93 in 5.0 mi South 8.1 mph - 0.04 in Rain , Thunderstorm Rain
6:55 PM 62.6 °F 62.6 °F 100% 29.91 in 10.0 mi SSE 15.0 mph 20.7 mph 0.07 in Rain Light Rain
7:15 PM 62.6 °F 62.6 °F 100% 29.90 in 10.0 mi South 17.3 mph - N/A Rain Light Rain
7:35 PM 64.4 °F 62.6 °F 94% 29.90 in 10.0 mi South 18.4 mph 27.6 mph 0.01 in   Light Drizzle
7:55 PM 64.4 °F 60.8 °F 88% 29.90 in 7.0 mi South 12.7 mph 19.6 mph 0.01 in   Clear
8:15 PM 64.4 °F 60.8 °F 88% 29.89 in 5.0 mi South 12.7 mph 21.9 mph N/A   Clear
8:35 PM 64.4 °F 60.8 °F 88% 29.90 in 5.0 mi South 10.4 mph - N/A   Clear
8:55 PM 64.4 °F 60.8 °F 88% 29.90 in 5.0 mi South 6.9 mph - N/A   Clear
9:15 PM 62.6 °F 60.8 °F 94% 29.90 in 5.0 mi Calm Calm - N/A   Clear
9:35 PM 62.6 °F 60.8 °F 94% 29.92 in 10.0 mi NNW 6.9 mph - N/A   Clear
10:15 PM 60.8 °F 60.8 °F 100% 29.95 in 10.0 mi NNW 8.1 mph - N/A   Clear
10:35 PM 60.8 °F 59.0 °F 94% 29.96 in 10.0 mi North 8.1 mph - N/A   Clear
11:15 PM 59.0 °F 59.0 °F 100% 29.97 in 5.0 mi NNW 8.1 mph - N/A   Overcast
11:35 PM 59.0 °F 59.0 °F 100% 29.98 in 4.0 mi NNW 9.2 mph - N/A   Overcast
11:55 PM 59.0 °F 59.0 °F 100% 29.99 in 4.0 mi NW 5.8 mph - N/A   Overcast